ECHOSTAR 16

Last updated on Thu Jul 03 2025 00:02:46 GMT+0000 (Coordinated Universal Time)

1 39008U 12065A 25183.55445828 -.00000274 00000+0 00000+0 0 9996 2 39008 0.0177 26.6641 0002156 74.7276 317.5454 1.00271485 46118
UTC large
Height (km)
Speed (km/s)
/
Latitude / Longitude
Inclination (degrees)
Orbital Period (minutes)
Azimuth
Elevation
Range (km)
Doppler Factor

Next 0 passes for location: London (51.5072 / 0.1276)

Sorry there are no passes over London.